Meteo Giornale » Osservazioni meteo Italia » Cagliari-Elmas

ore: 08:20 - Osservazioni Meteo Cagliari-Elmas
Lat. 39° 15' N Lon. 9° 4' E Alt. 4 metri s.l.m.

poco_nuvoloso Europe/Rome

3 °C

Poco Nuvoloso

Temp. 24 Ore

2 °C

14 °C

Nord

7.4 Km/h

Dew point 3 °C

Umidità 100 %

Visibilità  9 Km

Il sole sorge alle ore 07:37

Il sole tramonta alle ore 17:31

Data e Ora Cielo e Fenomeni T °C DP °C Um. % Pres. hPa Vis. km Vento km/h
Oggi h: 08:20 poco_nuvoloso Poco Nuvoloso 3 3 100 1023 9 N 7.4
Oggi h: 07:50 poco_nuvoloso Poco Nuvoloso 2 2 100 1023 9 N 11.1
Oggi h: 07:20 poco_nuvoloso Poco Nuvoloso 2 2 100 1023 10 N 7.4
Oggi h: 06:50 poco_nuvoloso Poco Nuvoloso 2 2 100 1023 10 N 11.1
Oggi h: 06:20 poco_nuvoloso Poco Nuvoloso 2 2 100 1023 10 N 11.1
Oggi h: 05:50 poco_nuvoloso Poco Nuvoloso 2 2 100 1023 10 N 7.4
Oggi h: 05:20 poco_nuvoloso Poco Nuvoloso 2 2 100 1023 9 N 7.4
Oggi h: 04:50 poco_nuvoloso Poco Nuvoloso 3 3 100 1024 9 N 11.1
Oggi h: 04:20 poco_nuvoloso Poco Nuvoloso 2 2 100 1024 9 N 9.3
Oggi h: 03:50 poco_nuvoloso Poco Nuvoloso 3 3 100 1024 9 N/NO 9.3
Oggi h: 02:20 sereno Sereno 3 3 100 1025 10 N 7.4
Oggi h: 01:50 sereno Sereno 3 3 100 1025 10 N 9.3
Oggi h: 01:20 sereno Sereno 3 3 100 1025 10 N 5.5
Oggi h: 00:50 sereno Sereno 4 4 100 1026 10 N/NO 9.3
Oggi h: 00:20 sereno Sereno 4 4 100 1026 10 N 3.7
Ieri h: 23:50 sereno Sereno 5 5 100 1026 10 N 5.5
Ieri h: 23:20 sereno Sereno 5 5 100 1026 9 N 1.8
Ieri h: 22:50 sereno Sereno 5 5 100 1026 10 N 3.7
Ieri h: 22:20 sereno Sereno 5 5 100 1026 10 N 5.5
Ieri h: 21:50 sereno Sereno 6 5 93 1026 10 N 9.3
Ieri h: 21:20 sereno Sereno 7 6 93 1026 10 N 1.8
Ieri h: 20:50 sereno Sereno 7 7 100 1026 10 N 3.7
Ieri h: 20:20 sereno Sereno 7 6 93 1026 10 N 3.7
Ieri h: 19:50 sereno Sereno 9 8 93 1027 10 N 5.5
Ieri h: 19:20 sereno Sereno 10 7 81 1026 10 N 3.7
Ieri h: 18:50 sereno Sereno 11 8 81 1026 10 N 3.7
Ieri h: 18:20 sereno Sereno 11 8 81 1026 10 N 5.5
Ieri h: 17:50 sereno Sereno 11 7 76 1026 10 O 7.4
Ieri h: 17:20 sereno Sereno 12 8 76 1026 10 N 3.7
Ieri h: 16:50 sereno Sereno 12 7 71 1026 10 N 11.1
Ieri h: 16:20 poco_nuvoloso Poco Nuvoloso 14 7 62 1026 10 N 11.1
Ieri h: 15:50 poco_nuvoloso Poco Nuvoloso 14 7 62 1026 10 N 13
Ieri h: 15:20 nuvoloso Nuvoloso 14 7 62 1026 10 N 13
Ieri h: 14:50 nuvoloso Nuvoloso 13 7 66 1026 10 N 5.5
Ieri h: 14:20 nuvoloso Nuvoloso 14 7 62 1026 10 N 5.5
Ieri h: 13:50 nuvoloso Nuvoloso 14 7 62 1026 10 O/NO 7.4
Ieri h: 13:20 nuvoloso Nuvoloso 14 6 58 1026 10 N/NO 7.4
Ieri h: 12:50 poco_nuvoloso Poco Nuvoloso 14 6 58 1027 10 N 9.3
Ieri h: 12:20 poco_nuvoloso Poco Nuvoloso 13 6 62 1027 10 N 5.5
Ieri h: 11:50 poco_nuvoloso Poco Nuvoloso 12 6 66 1028 10 N 3.7
Ieri h: 11:20 poco_nuvoloso Poco Nuvoloso 10 7 81 1028 10 SO 7.4
Ieri h: 10:50 poco_nuvoloso Poco Nuvoloso 9 8 93 1028 10 N 5.5
Ieri h: 10:20 poco_nuvoloso Poco Nuvoloso 8 7 93 1028 10 N 3.7
Ieri h: 09:50 poco_nuvoloso Poco Nuvoloso 7 7 100 1028 10 N 3.7
Ieri h: 09:20 nuvoloso Nuvoloso 6 6 100 1028 10 N 5.5
Ieri h: 08:50 nuvoloso Nuvoloso 7 7 100 1028 10 N 1.8